TimeEST,TemperatureF,Dew PointF,Humidity,Sea Level PressureIn,VisibilityMPH,Wind Direction,Wind SpeedMPH,Gust SpeedMPH,PrecipitationIn,Events,Conditions,WindDirDegrees,DateUTC
12:58 AM,62.1,60.1,93,30.16,10.0,SW,6.9,-,N/A,,Partly Cloudy,220,2013-01-14 05:58:00
1:58 AM,61.0,59.0,93,30.18,10.0,WSW,5.8,-,N/A,,Clear,240,2013-01-14 06:58:00
2:58 AM,60.1,59.0,96,30.18,10.0,SW,6.9,-,N/A,,Clear,230,2013-01-14 07:58:00
3:58 AM,60.1,57.9,93,30.14,10.0,SSW,6.9,-,N/A,,Clear,200,2013-01-14 08:58:00
4:58 AM,57.9,57.0,97,30.13,10.0,SSW,5.8,-,N/A,,Clear,200,2013-01-14 09:58:00
5:58 AM,59.0,57.9,96,30.13,10.0,South,6.9,-,N/A,,Clear,190,2013-01-14 10:58:00
6:58 AM,60.1,57.9,93,30.17,10.0,West,6.9,-,N/A,,Clear,270,2013-01-14 11:58:00
7:58 AM,59.0,57.9,96,30.19,9.0,West,5.8,-,0.01,,Clear,280,2013-01-14 12:58:00
8:58 AM,63.0,60.1,90,30.21,10.0,WSW,3.5,-,N/A,,Clear,250,2013-01-14 13:58:00
9:58 AM,68.0,63.0,84,30.21,10.0,SW,5.8,-,N/A,,Clear,230,2013-01-14 14:58:00
10:58 AM,70.0,63.0,78,30.19,10.0,WSW,8.1,-,N/A,,Clear,240,2013-01-14 15:58:00
11:58 AM,70.0,63.0,78,30.17,10.0,SW,10.4,-,N/A,,Partly Cloudy,230,2013-01-14 16:58:00
12:58 PM,71.1,62.1,73,30.14,10.0,WSW,8.1,-,N/A,,Clear,240,2013-01-14 17:58:00
1:58 PM,69.1,62.1,78,30.15,10.0,SW,9.2,-,N/A,,Clear,220,2013-01-14 18:58:00
2:58 PM,68.0,62.1,81,30.15,10.0,SSW,8.1,-,N/A,,Clear,210,2013-01-14 19:58:00
3:58 PM,66.9,61.0,81,30.16,10.0,SSW,10.4,-,N/A,,Clear,210,2013-01-14 20:58:00
4:58 PM,64.9,62.1,90,30.17,10.0,SSW,10.4,-,N/A,,Partly Cloudy,200,2013-01-14 21:58:00
5:58 PM,64.9,62.1,90,30.18,10.0,South,10.4,-,N/A,,Clear,190,2013-01-14 22:58:00
6:58 PM,64.0,62.1,93,30.19,10.0,South,9.2,-,N/A,,Clear,190,2013-01-14 23:58:00
7:58 PM,63.0,61.0,93,30.18,10.0,SSW,10.4,-,N/A,,Clear,200,2013-01-15 00:58:00
8:58 PM,63.0,61.0,93,30.17,10.0,SSW,10.4,-,N/A,,Clear,200,2013-01-15 01:58:00
9:58 PM,63.0,61.0,93,30.17,9.0,SSW,11.5,-,N/A,,Clear,200,2013-01-15 02:58:00
10:58 PM,63.0,61.0,93,30.17,9.0,SW,10.4,-,N/A,,Clear,220,2013-01-15 03:58:00
11:58 PM,63.0,61.0,93,30.17,9.0,SSW,9.2,-,N/A,,Clear,210,2013-01-15 04:58:00